YAOGAN-26

Last updated on Wed Sep 17 2025 00:02:31 GMT+0000 (Coordinated Universal Time)

1 40362U 14088A 25259.63805088 .00015562 00000+0 45670-3 0 9990 2 40362 97.0670 263.6568 0004179 352.0899 8.0279 15.35231366595560
UTC large
Height (km)
Speed (km/s)
/
Latitude / Longitude
Inclination (degrees)
Orbital Period (minutes)
Azimuth
Elevation
Range (km)
Doppler Factor

Next 0 passes for location: London (51.5072 / 0.1276)

Sorry there are no passes over London.